Erie, PA

8:18 AM EST on December 06, 2019 (GMT -0500)
Erie International

Weather History for KERI - October, 2019

Change the Weather History Date:

Saturday, October 5, 2019

  Actual Average Record
Temperature  
Mean Temperature 52 °F 57 °F  
Max Temperature 66 °F 64 °F 87 °F (2007)
Min Temperature 37 °F 49 °F 36 °F (1935)
Degree Days  
Heating Degree Days 14 9  
Month to date heating degree days 27 42  
Since 1 July heating degree days 39 166  
Cooling Degree Days 0 1  
Month to date cooling degree days 20 5  
Year to date cooling degree days 845 634  
Growing Degree Days 2 (Base 50)    
Moisture  
Dew Point 39 °F    
Average Humidity 61    
Maximum Humidity 89    
Minimum Humidity 42    
Precipitation  
Precipitation 0.00 in 0.15 in 1.22 in (1983)
Month to date precipitation 0.29 0.74  
Year to date precipitation 29.92 31.18  
Snow  
Snow 0.00 in 0.00 in - ()
Month to date snowfall 0.0 0.0  
Since 1 July snowfall 0.0 0.0  
Since 1 September snowfall 0.0 0.0  
Snow Depth 0.00 in    
Sea Level Pressure  
Sea Level Pressure 30.25 in    
Wind  
Wind Speed 8 mph ()    
Max Wind Speed 25 mph    
Max Gust Speed 36 mph    
Visibility 10.0 miles    
Events Rain    
T = Trace of Precipitation, MM = Missing Value Source: Averaged Metar Reports

Daily Weather History Graph

Daily Weather History Graph

Search for Another Location

Airport or City:

Astronomy

Oct. 05, 2019 Rise Set
Actual Time 7:21 AM EDT 6:55 PM EDT
Civil Twilight 6:53 AM EDT 7:23 PM EDT
Nautical Twilight 6:21 AM EDT 7:56 PM EDT
Astronomical Twilight 5:48 AM EDT 8:28 PM EDT
Moon 2:51 PM EDT (10/5) No Moon Set
Length of Visible Light 12h 29m
Length of Day
11h 34m
Waxing Crescent, 50% of the Moon is Illuminated
Oct 5
Waxing Crescent
Oct 5
First Quarter
Oct 13
Full
Oct 21
Last Quarter
Oct 27
New

Hourly Weather History & Observations

Time (EDT) Temp. Windchill Dew Point Humidity Pressure Visibility Wind Dir Wind Speed Gust Speed Precip Events Conditions
12:51 AM 46.0 °F 42.5 °F 36.0 °F 68% 30.40 in 10.0 mi East 6.9 mph - N/A   Clear
1:51 AM 45.0 °F 40.6 °F 36.0 °F 71% 30.40 in 10.0 mi East 8.1 mph - N/A   Clear
2:51 AM 45.0 °F 40.6 °F 36.0 °F 71% 30.39 in 10.0 mi East 8.1 mph - N/A   Clear
3:51 AM 42.1 °F 37.7 °F 35.1 °F 76% 30.38 in 10.0 mi ENE 6.9 mph - N/A   Clear
4:51 AM 39.0 °F 34.8 °F 34.0 °F 82% 30.38 in 10.0 mi ENE 5.8 mph - N/A   Clear
5:51 AM 39.0 °F 36.8 °F 35.1 °F 86% 30.37 in 10.0 mi East 3.5 mph - N/A   Clear
6:51 AM 37.9 °F - 34.0 °F 86% 30.36 in 10.0 mi Calm Calm - N/A   Clear
7:51 AM 37.0 °F - 34.0 °F 89% 30.35 in 10.0 mi Calm Calm - N/A   Clear
8:51 AM 45.0 °F 40.1 °F 36.0 °F 71% 30.34 in 10.0 mi ESE 9.2 mph - N/A   Clear
9:51 AM 48.9 °F - 36.0 °F 61% 30.33 in 10.0 mi ESE 11.5 mph 20.7 mph N/A   Clear
10:43 AM 52.0 °F - 37.0 °F 57% 30.31 in 10.0 mi SSE 12.7 mph - N/A   Clear
10:51 AM 53.1 °F - 37.9 °F 57% 30.32 in 10.0 mi ESE 10.4 mph - N/A   Clear
11:51 AM 55.9 °F - 37.9 °F 51% 30.29 in 10.0 mi ESE 10.4 mph - N/A   Clear
12:51 PM 60.1 °F - 39.0 °F 46% 30.27 in 10.0 mi SE 6.9 mph - N/A   Clear
1:22 PM 61.0 °F - 39.9 °F 46% 30.24 in 10.0 mi East 6.9 mph - N/A   Clear
1:23 PM 61.0 °F - 39.9 °F 46% 30.24 in 10.0 mi East 5.8 mph - N/A   Clear
1:51 PM 63.0 °F - 41.0 °F 45% 30.22 in 10.0 mi SSE 9.2 mph - N/A   Clear
2:51 PM 64.9 °F - 42.1 °F 43% 30.18 in 10.0 mi SE 10.4 mph - N/A   Clear
3:51 PM 66.0 °F - 43.0 °F 43% 30.16 in 10.0 mi SSE 12.7 mph - N/A   Clear
4:51 PM 64.9 °F - 44.1 °F 47% 30.15 in 10.0 mi SE 10.4 mph - N/A   Clear
5:51 PM 63.0 °F - 44.1 °F 50% 30.13 in 10.0 mi SE 8.1 mph - N/A   Clear
6:51 PM 60.1 °F - 45.0 °F 57% 30.11 in 10.0 mi SE 9.2 mph - N/A   Clear
7:51 PM 59.0 °F - 44.1 °F 58% 30.10 in 10.0 mi SE 9.2 mph - N/A   Clear
8:51 PM 57.9 °F - 44.1 °F 60% 30.07 in 10.0 mi SSE 13.8 mph 25.3 mph N/A   Clear
9:51 PM 57.0 °F - 44.1 °F 62% 30.06 in 10.0 mi SSE 20.7 mph 29.9 mph 0.00 in Rain Light Rain
10:51 PM 55.9 °F - 44.1 °F 64% 30.05 in 10.0 mi SSE 21.9 mph 32.2 mph 0.00 in Rain Light Rain
11:51 PM 55.9 °F - 44.1 °F 64% 30.04 in 10.0 mi SSE 20.7 mph 33.4 mph 0.00 in Rain Light Rain